Simultaneous Nadir Overpasses (SNOs) Predictions

Prediction of SNOs between FY3D and TERRA Satellite Orbit:

Table of predicted SNOs for the next 14.0 days since TLE Epoch: 11/11/2023
Index Date (FY3D) Time (FY3D) Lat,Lon (FY3D) SZA (FY3D ) Date (TERRA) Time (TERRA) Lat,Lon (TERRA) SZA (TERRA ) Distance(km) Time Diff (sec)
1 11/13/2023 08:48:12 -74.98,-133.53 87.17 11/13/2023 08:49:19 -74.87,-131.13 87.23 70.50 67
2 11/13/2023 09:38:47 74.42, 35.34 92.31 11/13/2023 09:38:48 74.43, 35.46 92.32 3.72 1
3 11/13/2023 10:29:27 -74.20,-156.77 87.90 11/13/2023 10:28:14 -74.29,-157.21 87.83 16.44 73
4 11/15/2023 20:51:59 74.44,-132.97 92.97 11/15/2023 20:52:58 74.46,-133.03 92.99 3.05 59
5 11/15/2023 21:42:43 -74.41, 34.41 87.06 11/15/2023 21:42:22 -74.42, 34.53 87.05 3.61 21
6 11/18/2023 08:55:54 -74.44,-133.92 86.42 11/18/2023 08:56:30 -74.47,-133.92 86.39 3.17 36
7 11/18/2023 09:46:40 74.41, 33.48 93.56 11/18/2023 09:45:52 74.39, 33.54 93.53 2.99 48
8 11/20/2023 20:59:52 74.44,-134.88 94.16 11/20/2023 21:00:00 74.45,-134.86 94.17 1.18 8
9 11/20/2023 21:50:35 -74.37, 32.63 85.90 11/20/2023 21:49:25 -74.36, 32.57 85.92 2.15 70
10 11/23/2023 08:13:04 74.49, 56.74 94.74 11/23/2023 08:14:08 74.49, 56.65 94.74 2.69 64
11 11/23/2023 09:03:47 -74.42,-135.75 85.32 11/23/2023 09:03:32 -74.44,-135.80 85.30 3.18 15



Historial Predications of SNOs between FY3D and TERRA
